Location: Sungai Juaw
(2.6833°N, 113.5333°E)
Time: 22:35:57
(UTC+00:00)

IRS-1C - Pass Details

Date: 04 August 2024
Orbit: 814 x 815 km, 99.0° (Epoch: 19 September)

Event Time Altitude Azimuth Distance (km) Brightness Sun altitude
Rises 21:42:57 0° 1° (N) 3,323 7.6 -10.9°
Reaches altitude 10° 21:45:22 10° 355° (N) 2,393 6.7 -10.3°
Maximum altitude 21:50:24 45° 283° (WNW) 1,091 4.4 -9.1°
Drops below altitude 10° 21:55:27 10° 211° (SSW) 2,400 6.1 -7.9°
Sets 21:57:53 0° 205° (SSW) 3,333 6.9 -7.3°
